Location: Maccacari
(45.1333°N, 11.1333°E)
Time: 03:05:49
(UTC+00:00)

Altair - Pass Details

Date: 30 January 2021
Orbit: 1501 x 1682 km, 47.2° (Epoch: 01 March)

Event Time Altitude Azimuth Distance (km) Brightness Sun altitude
Rises 00:28:11 0° 183° (S) 4,771 - -59.8°
Reaches altitude 10° 00:32:22 10° 167° (SSE) 3,822 - -59.5°
Maximum altitude 00:38:45 20° 126° (SE) 3,158 - -58.9°
Exits shadow 00:44:30 12° 88° (E) 3,767 9.7 -58.3°
Drops below altitude 10° 00:45:16 10° 84° (E) 3,917 9.8 -58.2°
Sets 00:49:34 0° 69° (ENE) 4,926 10.6 -57.7°
